| time (UTC) | temp F | wind direction | speed MPH | gust MPH | rain 1hr in | rain 24hr in | rain mn in | humidity % | barometer mb |
| 20260906205629 | 79 | 56 | 4.0 | 13.0 | 0.00 | 0.00 | 0.00 | 49 | 1019.6 |
| 20260906205126 | 79 | 77 | 9.0 | 12.0 | 0.00 | 0.00 | 0.00 | 49 | 1019.5 |
| 20260906204625 | 80 | 66 | 3.0 | 12.0 | 0.00 | 0.00 | 0.00 | 49 | 1019.8 |
| 20260906204120 | 79 | 4 | 3.0 | 13.0 | 0.00 | 0.00 | 0.00 | 49 | 1019.6 |
| 20260906203620 | 80 | 10 | 4.0 | 13.0 | 0.00 | 0.00 | 0.00 | 49 | 1019.6 |
| 20260906203114 | 80 | 9 | 4.0 | 14.0 | 0.00 | 0.00 | 0.00 | 49 | 1019.5 |
| 20260906202611 | 80 | 70 | 6.0 | 11.0 | 0.00 | 0.00 | 0.00 | 50 | 1019.6 |
| 20260906202110 | 79 | 86 | 7.0 | 16.0 | 0.00 | 0.00 | 0.00 | 51 | 1019.8 |
| 20260906201606 | 80 | 80 | 5.0 | 15.0 | 0.00 | 0.00 | 0.00 | 51 | 1019.6 |
| 20260906201104 | 80 | 40 | 5.0 | 11.0 | 0.00 | 0.00 | 0.00 | 51 | 1019.7 |
| 20260906200601 | 80 | 65 | 3.0 | 13.0 | 0.00 | 0.00 | 0.00 | 51 | 1019.7 |
| 20260906200051 | 80 | 35 | 3.0 | 14.0 | 0.00 | 0.00 | 0.00 | 51 | 1019.7 |
| 20260906195546 | 80 | 40 | 3.0 | 13.0 | 0.00 | 0.00 | 0.00 | 53 | 1019.7 |
| 20260906195043 | 80 | 15 | 3.0 | 18.0 | 0.00 | 0.00 | 0.00 | 53 | 1019.6 |
| 20260906194538 | 80 | 335 | 10.0 | 12.0 | 0.00 | 0.00 | 0.00 | 53 | 1019.6 |
| 20260906194034 | 80 | 8 | 5.0 | 11.0 | 0.00 | 0.00 | 0.00 | 54 | 1019.6 |
| 20260906193534 | 80 | 85 | 7.0 | 13.0 | 0.00 | 0.00 | 0.00 | 54 | 1019.8 |
| 20260906193029 | 79 | 78 | 0.0 | 13.0 | 0.00 | 0.00 | 0.00 | 55 | 1019.7 |
| 20260906192524 | 80 | 80 | 5.0 | 17.0 | 0.00 | 0.00 | 0.00 | 55 | 1019.7 |
| 20260906192023 | 80 | 324 | 5.0 | 10.0 | 0.00 | 0.00 | 0.00 | 55 | 1019.9 |
| 20260906191519 | 79 | 330 | 4.0 | 18.0 | 0.00 | 0.00 | 0.00 | 57 | 1019.8 |
| 20260906191018 | 80 | 344 | 3.0 | 10.0 | 0.00 | 0.00 | 0.00 | 57 | 1019.7 |
| 20260906190517 | 80 | 22 | 10.0 | 13.0 | 0.00 | 0.00 | 0.00 | 54 | 1019.7 |
| 20260906190013 | 82 | 72 | 5.0 | 10.0 | 0.00 | 0.00 | 0.00 | 53 | 1019.7 |
| 20260906185511 | 81 | 104 | 4.0 | 11.0 | 0.00 | 0.00 | 0.00 | 55 | 1020.0 |
| 20260906185010 | 80 | 5 | 3.0 | 11.0 | 0.00 | 0.00 | 0.00 | 56 | 1020.0 |
| 20260906184506 | 80 | 353 | 4.0 | 10.0 | 0.00 | 0.00 | 0.00 | 58 | 1019.8 |
| 20260906184001 | 80 | 72 | 3.0 | 10.0 | 0.00 | 0.00 | 0.00 | 58 | 1019.8 |
| 20260906183457 | 80 | 36 | 2.0 | 10.0 | 0.00 | 0.00 | 0.00 | 58 | 1020.1 |
| 20260906182952 | 82 | 14 | 4.0 | 9.0 | 0.00 | 0.00 | 0.00 | 57 | 1019.9 |
| 20260906182447 | 80 | 48 | 3.0 | 16.0 | 0.00 | 0.00 | 0.00 | 58 | 1020.1 |
| 20260906181943 | 79 | 114 | 4.0 | 13.0 | 0.00 | 0.00 | 0.00 | 59 | 1019.9 |
| 20260906181439 | 80 | 114 | 3.0 | 9.0 | 0.00 | 0.00 | 0.00 | 58 | 1019.9 |
| 20260906180934 | 80 | 72 | 8.0 | 15.0 | 0.00 | 0.00 | 0.00 | 57 | 1020.0 |
| 20260906180429 | 79 | 23 | 4.0 | 10.0 | 0.00 | 0.00 | 0.00 | 59 | 1020.2 |
| 20260906175927 | 80 | 75 | 3.0 | 11.0 | 0.00 | 0.00 | 0.00 | 58 | 1020.1 |
| 20260906175422 | 80 | 28 | 12.0 | 13.0 | 0.00 | 0.00 | 0.00 | 57 | 1020.2 |
| 20260906174920 | 80 | 26 | 4.0 | 12.0 | 0.00 | 0.00 | 0.00 | 60 | 1020.1 |
| 20260906174420 | 79 | 74 | 5.0 | 15.0 | 0.00 | 0.00 | 0.00 | 60 | 1020.1 |
| 20260906173915 | 80 | 37 | 3.0 | 13.0 | 0.00 | 0.00 | 0.00 | 60 | 1020.4 |
| 20260906173410 | 79 | 98 | 7.0 | 14.0 | 0.00 | 0.00 | 0.00 | 60 | 1020.5 |
| 20260906172909 | 80 | 74 | 5.0 | 10.0 | 0.00 | 0.00 | 0.00 | 59 | 1020.3 |
| 20260906172406 | 79 | 57 | 6.0 | 13.0 | 0.00 | 0.00 | 0.00 | 60 | 1020.6 |
| 20260906171901 | 80 | 56 | 16.0 | 16.0 | 0.00 | 0.00 | 0.00 | 59 | 1020.6 |
| 20260906171355 | 81 | 103 | 9.0 | 9.0 | 0.00 | 0.00 | 0.00 | 59 | 1020.6 |
| 20260906170851 | 80 | 100 | 6.0 | 12.0 | 0.00 | 0.00 | 0.00 | 59 | 1020.4 |
| 20260906170348 | 80 | 94 | 5.0 | 17.0 | 0.00 | 0.00 | 0.00 | 59 | 1020.5 |
| 20260906165844 | 81 | 19 | 2.0 | 11.0 | 0.00 | 0.00 | 0.00 | 61 | 1020.6 |
| 20260906165342 | 80 | 46 | 5.0 | 8.0 | 0.00 | 0.00 | 0.00 | 60 | 1020.4 |
| 20260906164838 | 79 | 87 | 1.0 | 16.0 | 0.00 | 0.00 | 0.00 | 62 | 1020.4 |
| 20260906164337 | 79 | 49 | 3.0 | 16.0 | 0.00 | 0.00 | 0.00 | 62 | 1020.4 |
| 20260906163833 | 79 | 38 | 4.0 | 12.0 | 0.00 | 0.00 | 0.00 | 63 | 1020.6 |
| 20260906163329 | 79 | 60 | 4.0 | 13.0 | 0.00 | 0.00 | 0.00 | 62 | 1020.5 |
| 20260906162826 | 79 | 95 | 5.0 | 12.0 | 0.00 | 0.00 | 0.00 | 63 | 1020.5 |
| 20260906162325 | 78 | 116 | 6.0 | 12.0 | 0.00 | 0.00 | 0.00 | 64 | 1020.3 |
| 20260906161821 | 79 | 106 | 9.0 | 12.0 | 0.00 | 0.00 | 0.00 | 63 | 1020.4 |
| 20260906161320 | 78 | 81 | 8.0 | 15.0 | 0.00 | 0.00 | 0.00 | 66 | 1020.5 |
| 20260906160819 | 78 | 126 | 4.0 | 12.0 | 0.00 | 0.00 | 0.00 | 68 | 1020.6 |
| 20260906160313 | 79 | 131 | 3.0 | 12.0 | 0.00 | 0.00 | 0.00 | 67 | 1020.3 |
| 20260906155811 | 79 | 102 | 5.0 | 12.0 | 0.00 | 0.00 | 0.00 | 67 | 1020.4 |
| 20260906155307 | 78 | 49 | 6.0 | 12.0 | 0.00 | 0.00 | 0.00 | 69 | 1020.2 |
| 20260906154802 | 79 | 64 | 4.0 | 10.0 | 0.00 | 0.00 | 0.00 | 69 | 1020.1 |
| 20260906154257 | 78 | 42 | 5.0 | 9.0 | 0.00 | 0.00 | 0.00 | 68 | 1020.3 |
| 20260906153755 | 77 | 150 | 3.0 | 17.0 | 0.00 | 0.00 | 0.00 | 69 | 1020.3 |
| 20260906153249 | 77 | 100 | 3.0 | 6.0 | 0.00 | 0.00 | 0.00 | 75 | 1020.4 |
| 20260906152744 | 77 | 78 | 3.0 | 10.0 | 0.00 | 0.00 | 0.00 | 75 | 1020.3 |
| 20260906152239 | 77 | 39 | 2.0 | 9.0 | 0.00 | 0.00 | 0.00 | 73 | 1020.3 |
| 20260906151738 | 77 | 63 | 3.0 | 7.0 | 0.00 | 0.00 | 0.00 | 76 | 1020.6 |
| 20260906151234 | 77 | 71 | 8.0 | 11.0 | 0.00 | 0.00 | 0.00 | 76 | 1020.6 |
| 20260906150729 | 77 | 101 | 4.0 | 8.0 | 0.00 | 0.00 | 0.00 | 75 | 1020.4 |
| 20260906150225 | 78 | 92 | 5.0 | 11.0 | 0.00 | 0.00 | 0.00 | 74 | 1020.4 |
| 20260906145724 | 77 | 101 | 3.0 | 9.0 | 0.00 | 0.00 | 0.00 | 79 | 1020.2 |
| 20260906145223 | 76 | 39 | 2.0 | 9.0 | 0.00 | 0.00 | 0.00 | 79 | 1020.4 |
| 20260906144718 | 75 | 101 | 2.0 | 6.0 | 0.00 | 0.00 | 0.00 | 81 | 1020.3 |
| 20260906144213 | 77 | 5 | 4.0 | 7.0 | 0.00 | 0.00 | 0.00 | 80 | 1020.3 |
| 20260906143712 | 77 | 60 | 9.0 | 9.0 | 0.00 | 0.00 | 0.00 | 79 | 1020.1 |
| 20260906143210 | 76 | 121 | 5.0 | 8.0 | 0.00 | 0.00 | 0.00 | 81 | 1020.2 |
| 20260906142709 | 75 | 69 | 4.0 | 7.0 | 0.00 | 0.00 | 0.00 | 83 | 1020.1 |
| 20260906142205 | 75 | 66 | 3.0 | 7.0 | 0.00 | 0.00 | 0.00 | 84 | 1020.0 |
| 20260906141703 | 75 | 107 | 4.0 | 6.0 | 0.00 | 0.00 | 0.00 | 83 | 1020.0 |
| 20260906141158 | 75 | 77 | 2.0 | 5.0 | 0.00 | 0.00 | 0.00 | 85 | 1019.7 |
| 20260906140657 | 74 | 108 | 3.0 | 5.0 | 0.00 | 0.00 | 0.00 | 86 | 1020.0 |
| 20260906140153 | 75 | 111 | 3.0 | 5.0 | 0.00 | 0.00 | 0.00 | 85 | 1020.1 |
| 20260906135649 | 74 | 103 | 2.0 | 7.0 | 0.00 | 0.00 | 0.00 | 89 | 1020.1 |
| 20260906135145 | 73 | 41 | 4.0 | 6.0 | 0.00 | 0.00 | 0.00 | 90 | 1020.2 |
| 20260906134641 | 73 | 344 | 0.0 | 3.0 | 0.00 | 0.00 | 0.00 | 91 | 1020.3 |
| 20260906134136 | 72 | 22 | 3.0 | 7.0 | 0.00 | 0.00 | 0.00 | 91 | 1020.2 |
| 20260906133632 | 72 | 340 | 2.0 | 5.0 | 0.00 | 0.00 | 0.00 | 92 | 1020.2 |
| 20260906133126 | 72 | 65 | 2.0 | 6.0 | 0.00 | 0.00 | 0.00 | 92 | 1020.0 |
| 20260906132621 | 72 | 101 | 2.0 | 4.0 | 0.00 | 0.00 | 0.00 | 92 | 1019.9 |
| 20260906132117 | 72 | 78 | 4.0 | 6.0 | 0.00 | 0.00 | 0.00 | 92 | 1020.0 |
| 20260906131613 | 72 | 61 | 2.0 | 6.0 | 0.00 | 0.00 | 0.00 | 93 | 1020.0 |
| 20260906131108 | 72 | 56 | 4.0 | 9.0 | 0.00 | 0.00 | 0.00 | 93 | 1020.2 |
| 20260906130602 | 72 | 68 | 3.0 | 5.0 | 0.00 | 0.00 | 0.00 | 93 | 1020.0 |
| 20260906130057 | 72 | 97 | 2.0 | 7.0 | 0.00 | 0.00 | 0.00 | 93 | 1020.0 |
| 20260906125554 | 73 | 75 | 6.0 | 9.0 | 0.00 | 0.00 | 0.00 | 92 | 1019.8 |
| 20260906125048 | 73 | 38 | 3.0 | 8.0 | 0.00 | 0.00 | 0.00 | 92 | 1020.0 |
| 20260906124544 | 73 | 83 | 0.0 | 5.0 | 0.00 | 0.00 | 0.00 | 93 | 1020.0 |
| 20260906124039 | 73 | 65 | 3.0 | 4.0 | 0.00 | 0.00 | 0.00 | 93 | 1019.9 |
| 20260906123538 | 72 | 79 | 3.0 | 4.0 | 0.00 | 0.00 | 0.00 | 94 | 1019.7 |
| 20260906123033 | 72 | 66 | 0.0 | 3.0 | 0.00 | 0.00 | 0.00 | 95 | 1019.5 |
| 20260906122527 | 71 | 358 | 1.0 | 5.0 | 0.00 | 0.00 | 0.00 | 95 | 1019.5 |
| 20260906122024 | 70 | 6 | 0.0 | 3.0 | 0.00 | 0.00 | 0.00 | 96 | 1019.5 |
| 20260906121519 | 70 | 346 | 1.0 | 4.0 | 0.00 | 0.00 | 0.00 | 97 | 1019.6 |
| 20260906121016 | 70 | 333 | 0.0 | 4.0 | 0.00 | 0.00 | 0.00 | 97 | 1019.3 |
| 20260906120516 | 69 | 145 | 1.0 | 3.0 | 0.00 | 0.00 | 0.00 | 98 | 1019.5 |
| 20260906120013 | 69 | 112 | 3.0 | 3.0 | 0.00 | 0.00 | 0.00 | 98 | 1019.1 |
| 20260906115507 | 69 | 45 | 0.0 | 3.0 | 0.00 | 0.00 | 0.00 | 98 | 1019.1 |
| 20260906115002 | 69 | 108 | 2.0 | 3.0 | 0.00 | 0.00 | 0.00 | 98 | 1018.8 |
| 20260906114456 | 69 | 76 | 2.0 | 3.0 | 0.00 | 0.00 | 0.00 | 98 | 1019.0 |
| 20260906113953 | 69 | 121 | 1.0 | 2.0 | 0.00 | 0.00 | 0.00 | 98 | 1018.9 |
| 20260906113451 | 69 | 157 | 0.0 | 2.0 | 0.00 | 0.00 | 0.00 | 98 | 1018.8 |
| 20260906112947 | 69 | 15 | 2.0 | 3.0 | 0.00 | 0.00 | 0.00 | 98 | 1018.8 |
| 20260906112442 | 68 | 75 | 0.0 | 2.0 | 0.00 | 0.00 | 0.00 | 98 | 1018.8 |
| 20260906111938 | 69 | 80 | 0.0 | 3.0 | 0.00 | 0.00 | 0.00 | 98 | 1018.5 |
| 20260906111437 | 68 | 347 | 0.0 | 2.0 | 0.00 | 0.00 | 0.00 | 98 | 1018.6 |
| 20260906110932 | 68 | 3 | 0.0 | 3.0 | 0.00 | 0.00 | 0.00 | 98 | 1018.6 |
| 20260906110428 | 68 | 309 | 0.0 | 2.0 | 0.00 | 0.00 | 0.00 | 98 | 1018.4 |
| 20260906105926 | 68 | 38 | 0.0 | 1.0 | 0.00 | 0.00 | 0.00 | 98 | 1018.3 |
| 20260906105422 | 68 | 75 | 0.0 | 1.0 | 0.00 | 0.00 | 0.00 | 98 | 1018.4 |
| 20260906104918 | 68 | 135 | 0.0 | 1.0 | 0.00 | 0.00 | 0.00 | 98 | 1018.2 |
| 20260906104416 | 68 | 100 | 1.0 | 1.0 | 0.00 | 0.00 | 0.00 | 98 | 1018.1 |
| 20260906103916 | 68 | 0 | 0.0 | 1.0 | 0.00 | 0.00 | 0.00 | 97 | 1018.1 |
| 20260906103414 | 68 | 50 | 0.0 | 2.0 | 0.00 | 0.00 | 0.00 | 97 | 1018.4 |
| 20260906102910 | 68 | 336 | 0.0 | 1.0 | 0.00 | 0.00 | 0.00 | 97 | 1018.2 |
| 20260906102409 | 68 | 347 | 0.0 | 1.0 | 0.00 | 0.00 | 0.00 | 97 | 1018.2 |
| 20260906101904 | 69 | 37 | 0.0 | 3.0 | 0.00 | 0.00 | 0.00 | 97 | 1018.2 |
| 20260906101359 | 69 | 350 | 0.0 | 2.0 | 0.00 | 0.00 | 0.00 | 97 | 1017.9 |
| 20260906100854 | 69 | 357 | 0.0 | 2.0 | 0.00 | 0.00 | 0.00 | 97 | 1018.2 |
| 20260906100353 | 69 | 33 | 0.0 | 1.0 | 0.00 | 0.00 | 0.00 | 96 | 1018.0 |
| 20260906095849 | 69 | 25 | 0.0 | 2.0 | 0.00 | 0.00 | 0.00 | 96 | 1017.9 |
| 20260906095344 | 69 | 10 | 0.0 | 2.0 | 0.00 | 0.00 | 0.00 | 96 | 1017.9 |
| 20260906094844 | 69 | 9 | 0.0 | 3.0 | 0.00 | 0.00 | 0.00 | 96 | 1017.8 |
| 20260906094338 | 69 | 37 | 0.0 | 5.0 | 0.00 | 0.00 | 0.00 | 95 | 1018.0 |
| 20260906093830 | 69 | 53 | 0.0 | 3.0 | 0.00 | 0.00 | 0.00 | 95 | 1017.9 |
| 20260906093325 | 69 | 357 | 1.0 | 3.0 | 0.00 | 0.00 | 0.00 | 95 | 1017.9 |
| 20260906092819 | 69 | 358 | 2.0 | 3.0 | 0.00 | 0.00 | 0.00 | 95 | 1017.9 |
| 20260906092314 | 70 | 355 | 0.0 | 3.0 | 0.00 | 0.00 | 0.00 | 94 | 1017.8 |
| 20260906091809 | 70 | 39 | 1.0 | 3.0 | 0.00 | 0.00 | 0.00 | 94 | 1017.6 |
| 20260906091305 | 70 | 42 | 2.0 | 3.0 | 0.00 | 0.00 | 0.00 | 94 | 1017.8 |
| 20260906090802 | 70 | 31 | 2.0 | 3.0 | 0.00 | 0.00 | 0.00 | 94 | 1017.7 |
| 20260906090300 | 70 | 76 | 1.0 | 4.0 | 0.00 | 0.00 | 0.00 | 94 | 1017.8 |
| 20260906085800 | 70 | 15 | 0.0 | 3.0 | 0.00 | 0.00 | 0.00 | 94 | 1018.0 |
| 20260906085253 | 70 | 27 | 2.0 | 3.0 | 0.00 | 0.00 | 0.00 | 94 | 1017.8 |
| 20260906084748 | 70 | 353 | 0.0 | 3.0 | 0.00 | 0.00 | 0.00 | 94 | 1017.6 |
| 20260906084242 | 71 | 20 | 2.0 | 2.0 | 0.00 | 0.00 | 0.00 | 94 | 1017.6 |
| 20260906083737 | 71 | 43 | 0.0 | 3.0 | 0.00 | 0.00 | 0.00 | 93 | 1017.7 |
| 20260906083233 | 71 | 99 | 0.0 | 3.0 | 0.00 | 0.00 | 0.00 | 93 | 1017.8 |
| 20260906082728 | 71 | 29 | 1.0 | 3.0 | 0.00 | 0.00 | 0.00 | 93 | 1017.8 |
| 20260906082223 | 71 | 61 | 1.0 | 3.0 | 0.00 | 0.00 | 0.00 | 93 | 1017.7 |
| 20260906081719 | 72 | 63 | 3.0 | 4.0 | 0.00 | 0.00 | 0.00 | 92 | 1017.9 |
| 20260906081219 | 72 | 64 | 1.0 | 4.0 | 0.00 | 0.00 | 0.00 | 92 | 1018.0 |
| 20260906080715 | 72 | 33 | 3.0 | 5.0 | 0.00 | 0.00 | 0.00 | 92 | 1018.0 |
| 20260906080211 | 72 | 46 | 3.0 | 4.0 | 0.00 | 0.00 | 0.00 | 92 | 1018.1 |
| 20260906075706 | 72 | 77 | 3.0 | 4.0 | 0.00 | 0.00 | 0.00 | 92 | 1018.0 |
| 20260906075201 | 72 | 76 | 1.0 | 4.0 | 0.00 | 0.00 | 0.00 | 92 | 1018.2 |
| 20260906074656 | 72 | 64 | 2.0 | 5.0 | 0.00 | 0.00 | 0.00 | 92 | 1018.1 |
| 20260906074155 | 72 | 44 | 1.0 | 4.0 | 0.00 | 0.00 | 0.00 | 92 | 1018.3 |
| 20260906073649 | 72 | 61 | 1.0 | 3.0 | 0.00 | 0.00 | 0.00 | 92 | 1017.9 |
| 20260906073140 | 72 | 33 | 1.0 | 4.0 | 0.00 | 0.00 | 0.00 | 93 | 1018.1 |
| 20260906072635 | 72 | 341 | 1.0 | 3.0 | 0.00 | 0.00 | 0.00 | 92 | 1018.1 |
| 20260906072130 | 72 | 48 | 2.0 | 4.0 | 0.00 | 0.00 | 0.00 | 92 | 1017.9 |
| 20260906071626 | 72 | 46 | 2.0 | 3.0 | 0.00 | 0.00 | 0.00 | 92 | 1018.1 |
| 20260906071121 | 72 | 29 | 1.0 | 4.0 | 0.00 | 0.00 | 0.00 | 92 | 1018.5 |
| 20260906070618 | 72 | 78 | 0.0 | 3.0 | 0.00 | 0.00 | 0.00 | 92 | 1018.1 |
| 20260906070113 | 73 | 73 | 0.0 | 5.0 | 0.00 | 0.00 | 0.00 | 92 | 1018.3 |
| 20260906065613 | 73 | 35 | 1.0 | 4.0 | 0.00 | 0.00 | 0.00 | 92 | 1018.2 |
| 20260906065108 | 73 | 52 | 1.0 | 4.0 | 0.00 | 0.00 | 0.00 | 92 | 1018.1 |
| 20260906064604 | 73 | 108 | 0.0 | 3.0 | 0.00 | 0.00 | 0.00 | 91 | 1018.0 |
| 20260906064058 | 73 | 359 | 2.0 | 3.0 | 0.00 | 0.00 | 0.00 | 91 | 1017.9 |
| 20260906063554 | 73 | 12 | 1.0 | 6.0 | 0.00 | 0.00 | 0.00 | 91 | 1017.9 |
| 20260906063049 | 73 | 66 | 2.0 | 6.0 | 0.00 | 0.00 | 0.00 | 91 | 1018.1 |
| 20260906062544 | 73 | 24 | 0.0 | 7.0 | 0.00 | 0.00 | 0.00 | 91 | 1017.9 |
| 20260906062038 | 73 | 96 | 5.0 | 6.0 | 0.00 | 0.00 | 0.00 | 90 | 1018.0 |
| 20260906061535 | 73 | 52 | 3.0 | 6.0 | 0.00 | 0.00 | 0.00 | 90 | 1018.2 |
| 20260906061034 | 73 | 92 | 3.0 | 6.0 | 0.00 | 0.00 | 0.00 | 90 | 1018.2 |
| 20260906060531 | 73 | 14 | 1.0 | 8.0 | 0.00 | 0.00 | 0.00 | 90 | 1018.0 |
| 20260906060028 | 73 | 83 | 2.0 | 6.0 | 0.00 | 0.00 | 0.00 | 90 | 1018.1 |
| 20260906055523 | 73 | 35 | 2.0 | 6.0 | 0.00 | 0.00 | 0.00 | 90 | 1017.8 |
| 20260906055019 | 73 | 78 | 5.0 | 6.0 | 0.00 | 0.00 | 0.00 | 90 | 1018.0 |
| 20260906054519 | 73 | 69 | 3.0 | 6.0 | 0.00 | 0.00 | 0.00 | 90 | 1017.9 |
| 20260906054014 | 73 | 0 | 3.0 | 8.0 | 0.00 | 0.00 | 0.00 | 91 | 1018.0 |
| 20260906053510 | 73 | 358 | 4.0 | 5.0 | 0.00 | 0.00 | 0.00 | 91 | 1017.7 |
| 20260906053006 | 73 | 29 | 2.0 | 5.0 | 0.00 | 0.00 | 0.00 | 90 | 1017.7 |
| 20260906052501 | 73 | 355 | 2.0 | 5.0 | 0.00 | 0.00 | 0.00 | 90 | 1018.0 |
| 20260906051958 | 73 | 336 | 1.0 | 6.0 | 0.00 | 0.00 | 0.00 | 90 | 1017.8 |
| 20260906051453 | 73 | 10 | 3.0 | 7.0 | 0.00 | 0.00 | 0.00 | 90 | 1017.7 |
| 20260906050949 | 73 | 30 | 2.0 | 8.0 | 0.00 | 0.00 | 0.00 | 90 | 1017.8 |
| 20260906050448 | 73 | 22 | 3.0 | 8.0 | 0.00 | 0.00 | 0.00 | 90 | 1017.9 |
| 20260906045948 | 73 | 357 | 2.0 | 10.0 | 0.00 | 0.00 | 0.00 | 90 | 1017.7 |
| 20260906045447 | 73 | 40 | 3.0 | 8.0 | 0.00 | 0.00 | 0.00 | 90 | 1017.5 |
| 20260906044943 | 73 | 51 | 3.0 | 7.0 | 0.00 | 0.00 | 0.00 | 90 | 1017.4 |
| 20260906044438 | 73 | 126 | 6.0 | 11.0 | 0.00 | 0.00 | 0.00 | 90 | 1017.0 |
| 20260906043933 | 73 | 20 | 5.0 | 8.0 | 0.00 | 0.00 | 0.00 | 90 | 1017.0 |
| 20260906043429 | 73 | 61 | 4.0 | 7.0 | 0.00 | 0.00 | 0.00 | 90 | 1017.0 |
| 20260906042925 | 73 | 70 | 6.0 | 10.0 | 0.00 | 0.00 | 0.00 | 90 | 1017.1 |
| 20260906042424 | 73 | 118 | 2.0 | 11.0 | 0.00 | 0.00 | 0.00 | 90 | 1017.0 |
| 20260906041919 | 73 | 45 | 9.0 | 11.0 | 0.00 | 0.00 | 0.00 | 89 | 1017.0 |
| 20260906041414 | 73 | 109 | 4.0 | 10.0 | 0.00 | 0.00 | 0.00 | 90 | 1017.0 |
| 20260906040908 | 73 | 39 | 6.0 | 10.0 | 0.00 | 0.00 | 0.00 | 89 | 1016.8 |
| 20260906040404 | 73 | 17 | 4.0 | 13.0 | 0.00 | 0.00 | 0.00 | 89 | 1017.0 |
| 20260906035859 | 73 | 67 | 2.0 | 8.0 | 0.00 | 0.00 | 0.00 | 89 | 1017.0 |
| 20260906035354 | 73 | 15 | 5.0 | 10.0 | 0.00 | 0.00 | 0.00 | 90 | 1017.0 |
| 20260906034849 | 73 | 29 | 4.0 | 9.0 | 0.00 | 0.00 | 0.00 | 90 | 1016.8 |
| 20260906034344 | 73 | 55 | 8.0 | 12.0 | 0.00 | 0.00 | 0.00 | 89 | 1017.0 |
| 20260906033840 | 73 | 67 | 5.0 | 14.0 | 0.00 | 0.00 | 0.00 | 89 | 1016.9 |
| 20260906033339 | 73 | 36 | 3.0 | 9.0 | 0.00 | 0.00 | 0.00 | 89 | 1016.7 |
| 20260906032836 | 73 | 61 | 2.0 | 7.0 | 0.00 | 0.00 | 0.00 | 89 | 1016.7 |
| 20260906032331 | 73 | 15 | 4.0 | 8.0 | 0.00 | 0.00 | 0.00 | 89 | 1016.9 |
| 20260906031826 | 73 | 15 | 2.0 | 6.0 | 0.00 | 0.00 | 0.00 | 89 | 1016.7 |
| 20260906031322 | 73 | 56 | 5.0 | 9.0 | 0.00 | 0.00 | 0.00 | 89 | 1016.7 |
| 20260906030821 | 73 | 89 | 5.0 | 8.0 | 0.00 | 0.00 | 0.00 | 89 | 1016.7 |
| 20260906030316 | 73 | 31 | 0.0 | 6.0 | 0.00 | 0.00 | 0.00 | 89 | 1016.8 |
| 20260906025811 | 73 | 46 | 3.0 | 10.0 | 0.00 | 0.00 | 0.00 | 89 | 1016.7 |
| 20260906025306 | 73 | 112 | 3.0 | 7.0 | 0.00 | 0.00 | 0.00 | 89 | 1016.7 |
| 20260906024804 | 73 | 13 | 3.0 | 3.0 | 0.00 | 0.00 | 0.00 | 89 | 1016.8 |
| 20260906024303 | 73 | 14 | 2.0 | 11.0 | 0.00 | 0.00 | 0.00 | 90 | 1016.9 |
| 20260906023759 | 73 | 34 | 2.0 | 11.0 | 0.00 | 0.00 | 0.00 | 90 | 1016.6 |
| 20260906023254 | 73 | 47 | 6.0 | 7.0 | 0.00 | 0.00 | 0.00 | 90 | 1016.9 |
| 20260906022750 | 73 | 351 | 4.0 | 7.0 | 0.00 | 0.00 | 0.00 | 90 | 1016.6 |
| 20260906022245 | 73 | 30 | 5.0 | 11.0 | 0.00 | 0.00 | 0.00 | 89 | 1016.6 |
| 20260906021741 | 73 | 44 | 6.0 | 12.0 | 0.00 | 0.00 | 0.00 | 89 | 1016.8 |
| 20260906021240 | 73 | 28 | 2.0 | 9.0 | 0.00 | 0.00 | 0.00 | 89 | 1016.7 |
| 20260906020734 | 73 | 69 | 3.0 | 10.0 | 0.00 | 0.00 | 0.00 | 90 | 1016.9 |
| 20260906020224 | 73 | 0 | 2.0 | 9.0 | 0.00 | 0.00 | 0.00 | 90 | 1016.8 |
| 20260906015724 | 73 | 23 | 4.0 | 12.0 | 0.00 | 0.00 | 0.00 | 90 | 1016.7 |
| 20260906015222 | 73 | 103 | 4.0 | 9.0 | 0.00 | 0.00 | 0.00 | 90 | 1017.1 |
| 20260906014716 | 73 | 338 | 3.0 | 7.0 | 0.00 | 0.00 | 0.00 | 90 | 1016.9 |
| 20260906014213 | 73 | 16 | 3.0 | 10.0 | 0.00 | 0.00 | 0.00 | 90 | 1016.9 |
| 20260906013709 | 73 | 315 | 3.0 | 14.0 | 0.00 | 0.00 | 0.00 | 90 | 1017.0 |
| 20260906013208 | 73 | 350 | 6.0 | 8.0 | 0.00 | 0.00 | 0.00 | 90 | 1017.0 |
| 20260906012703 | 73 | 13 | 3.0 | 12.0 | 0.00 | 0.00 | 0.00 | 90 | 1016.6 |
| 20260906012158 | 73 | 28 | 4.0 | 9.0 | 0.00 | 0.00 | 0.00 | 90 | 1016.7 |
| 20260906011654 | 73 | 30 | 11.0 | 12.0 | 0.00 | 0.00 | 0.00 | 89 | 1016.7 |
| 20260906011148 | 73 | 321 | 6.0 | 9.0 | 0.00 | 0.00 | 0.00 | 89 | 1016.8 |
| 20260906010644 | 73 | 342 | 2.0 | 5.0 | 0.00 | 0.00 | 0.00 | 89 | 1016.6 |
| 20260906010140 | 73 | 3 | 4.0 | 10.0 | 0.00 | 0.00 | 0.00 | 89 | 1016.7 |
| 20260906005639 | 73 | 316 | 5.0 | 10.0 | 0.00 | 0.00 | 0.00 | 88 | 1016.8 |
| 20260906005138 | 73 | 332 | 9.0 | 11.0 | 0.00 | 0.00 | 0.00 | 88 | 1016.7 |
| 20260906004638 | 73 | 10 | 4.0 | 12.0 | 0.00 | 0.00 | 0.00 | 88 | 1016.3 |
| 20260906004133 | 73 | 337 | 4.0 | 12.0 | 0.00 | 0.00 | 0.00 | 88 | 1016.4 |
| 20260906003628 | 73 | 25 | 3.0 | 13.0 | 0.00 | 0.00 | 0.00 | 88 | 1016.3 |
| 20260906003124 | 73 | 7 | 9.0 | 11.0 | 0.00 | 0.00 | 0.00 | 88 | 1016.3 |
| 20260906002619 | 73 | 357 | 4.0 | 14.0 | 0.00 | 0.00 | 0.00 | 88 | 1016.1 |
| 20260906002113 | 73 | 355 | 11.0 | 16.0 | 0.00 | 0.00 | 0.00 | 88 | 1016.2 |
| 20260906001608 | 74 | 22 | 7.0 | 13.0 | 0.00 | 0.00 | 0.00 | 87 | 1016.1 |
| 20260906001103 | 74 | 14 | 5.0 | 9.0 | 0.00 | 0.00 | 0.00 | 87 | 1016.1 |
| 20260906000559 | 75 | 36 | 8.0 | 13.0 | 0.00 | 0.00 | 0.00 | 87 | 1016.3 |
| 20260906000054 | 75 | 2 | 6.0 | 13.0 | 0.00 | 0.00 | 0.00 | 87 | 1016.2 |
| 20260905235553 | 75 | 16 | 6.0 | 15.0 | 0.00 | 0.00 | 0.00 | 86 | 1016.2 |
| 20260905235048 | 76 | 8 | 6.0 | 11.0 | 0.00 | 0.00 | 0.00 | 85 | 1016.3 |
| 20260905234544 | 76 | 10 | 3.0 | 14.0 | 0.00 | 0.00 | 0.00 | 85 | 1015.9 |
| 20260905234039 | 76 | 346 | 6.0 | 12.0 | 0.00 | 0.00 | 0.00 | 85 | 1016.2 |
| 20260905233538 | 76 | 340 | 4.0 | 11.0 | 0.00 | 0.00 | 0.00 | 85 | 1015.9 |
| 20260905233038 | 76 | 22 | 7.0 | 11.0 | 0.00 | 0.00 | 0.00 | 84 | 1016.0 |
| 20260905232534 | 77 | 13 | 6.0 | 13.0 | 0.00 | 0.00 | 0.00 | 84 | 1015.8 |
| 20260905232029 | 77 | 349 | 4.0 | 16.0 | 0.00 | 0.00 | 0.00 | 83 | 1015.6 |
| 20260905231524 | 78 | 8 | 9.0 | 13.0 | 0.00 | 0.00 | 0.00 | 82 | 1015.8 |
| 20260905231021 | 78 | 13 | 5.0 | 11.0 | 0.00 | 0.00 | 0.00 | 82 | 1015.5 |
| 20260905230520 | 78 | 17 | 4.0 | 11.0 | 0.00 | 0.00 | 0.00 | 81 | 1015.5 |
| 20260905230018 | 79 | 42 | 11.0 | 13.0 | 0.00 | 0.00 | 0.00 | 80 | 1015.3 |
| 20260905225513 | 80 | 19 | 7.0 | 14.0 | 0.00 | 0.00 | 0.00 | 78 | 1015.3 |
| 20260905225009 | 80 | 32 | 10.0 | 10.0 | 0.00 | 0.00 | 0.00 | 77 | 1015.3 |
| 20260905224504 | 80 | 353 | 7.0 | 19.0 | 0.00 | 0.00 | 0.00 | 76 | 1015.4 |
| 20260905224003 | 80 | 357 | 3.0 | 13.0 | 0.00 | 0.00 | 0.00 | 77 | 1015.4 |
| 20260905223501 | 81 | 3 | 7.0 | 9.0 | 0.00 | 0.00 | 0.00 | 76 | 1015.5 |
| 20260905222956 | 80 | 16 | 6.0 | 14.0 | 0.00 | 0.00 | 0.00 | 76 | 1015.3 |
| 20260905222456 | 81 | 6 | 3.0 | 11.0 | 0.00 | 0.00 | 0.00 | 76 | 1015.4 |
| 20260905221951 | 81 | 47 | 4.0 | 12.0 | 0.00 | 0.00 | 0.00 | 76 | 1015.4 |
| 20260905221447 | 82 | 335 | 4.0 | 12.0 | 0.00 | 0.00 | 0.00 | 74 | 1015.5 |
| 20260905220943 | 81 | 324 | 3.0 | 15.0 | 0.00 | 0.00 | 0.00 | 75 | 1015.2 |
| 20260905220439 | 80 | 352 | 4.0 | 9.0 | 0.00 | 0.00 | 0.00 | 77 | 1015.5 |
| 20260905215938 | 81 | 359 | 3.0 | 11.0 | 0.00 | 0.00 | 0.00 | 76 | 1015.4 |
| 20260905215434 | 80 | 20 | 4.0 | 13.0 | 0.00 | 0.00 | 0.00 | 77 | 1015.6 |
| 20260905214930 | 80 | 358 | 11.0 | 15.0 | 0.00 | 0.00 | 0.00 | 77 | 1015.4 |
| 20260905214426 | 80 | 357 | 4.0 | 11.0 | 0.00 | 0.00 | 0.00 | 77 | 1015.4 |
| 20260905213926 | 80 | 16 | 7.0 | 12.0 | 0.00 | 0.00 | 0.00 | 77 | 1015.7 |
| 20260905213422 | 80 | 27 | 7.0 | 9.0 | 0.00 | 0.00 | 0.00 | 79 | 1015.6 |
| 20260905212917 | 80 | 334 | 4.0 | 11.0 | 0.00 | 0.00 | 0.00 | 79 | 1015.6 |
| 20260905212412 | 80 | 0 | 4.0 | 9.0 | 0.00 | 0.00 | 0.00 | 78 | 1015.4 |
| 20260905211911 | 80 | 321 | 4.0 | 9.0 | 0.00 | 0.00 | 0.00 | 79 | 1015.4 |
| 20260905211407 | 80 | 338 | 3.0 | 9.0 | 0.00 | 0.00 | 0.00 | 79 | 1015.3 |
| 20260905210903 | 80 | 343 | 4.0 | 12.0 | 0.00 | 0.00 | 0.00 | 78 | 1015.6 |
| 20260905210357 | 80 | 337 | 5.0 | 13.0 | 0.00 | 0.00 | 0.00 | 78 | 1015.4 |
| 20260905205856 | 81 | 333 | 7.0 | 14.0 | 0.00 | 0.00 | 0.00 | 78 | 1015.3 |